RH
99 98 97 98 96 95 94 94 94 95 96 98 99 99 100 99 100 100 99 100 99 100 99 100 101 98 101 101 99 101 96 81 72 94 96 43 13 15 13 17 16 20 29 21 20 26 30 34 32 31 32 34 35 34 31 31 28 22 27 31 29 26 23 24 22 18 16 14 12 9 12 9 14 37 50 62 75 80 88 90 87 84 81 83 87 91 91 90
97 96 97 97 95 96 95 95 95 95 95 96 98 100 100 100 100 100 100 100 100 100 99 100 99 99 102 96 97 100 88 79 88 98 68 22 21 27 15 21 24 19 24 21 20 25 31 33 31 33 34 35 33 30 31 30 27 28 30 28 26 25 20 18 17 14 12 12 11 11 11 9 15 24 36 66 82 83 96 97 92 97 94 93 94 94 96 94
93 92 93 95 95 96 97 98 96 96 97 96 96 97 99 100 99 100 100 99 100 100 100 100 98 100 100 93 94 92 86 85 84 70 38 16 23 25 18 26 30 22 21 21 19 21 25 27 28 32 34 34 34 30 29 28 27 29 28 27 24 20 16 14 14 12 12 11 11 12 10 11 10 11 40 76 83 83 96 99 96 100 99 98 96 94 97 96
91 92 94 97 98 97 99 99 97 97 97 97 96 96 98 99 100 100 100 100 100 99 99 98 97 99 97 92 86 81 84 75 53 37 24 17 17 21 21 25 35 29 26 25 19 19 21 23 26 30 32 34 36 31 30 29 23 24 27 30 24 15 14 13 12 12 12 11 12 11 11 14 6 16 58 76 72 81 88 90 92 93 96 97 96 94 95 95
91 93 94 97 99 99 100 99 99 98 96 96 96 96 97 97 99 99 100 100 98 98 98 97 97 99 94 83 77 79 69 38 26 29 21 16 14 19 20 25 37 32 30 32 22 22 21 22 26 28 30 35 35 31 35 31 20 23 25 24 20 14 14 13 12 12 11 11 12 12 11 11 6 22 63 71 62 71 76 79 83 85 90 93 94 94 94 95
92 93 93 95 97 99 99 98 99 98 94 92 92 95 96 96 97 96 97 98 97 96 97 97 96 98 90 72 71 73 46 15 18 22 13 16 17 16 20 27 36 33 33 32 23 22 21 21 25 27 30 32 34 34 36 29 21 28 28 22 20 16 14 12 11 11 11 12 11 12 11 10 9 12 42 64 56 59 71 77 80 83 86 88 91 92 93 93
91 92 92 92 93 95 95 94 95 96 95 92 91 92 93 94 94 95 96 95 97 97 98 97 95 99 84 65 74 77 58 35 17 11 11 19 20 16 20 28 32 34 36 29 21 22 22 23 25 27 29 30 34 34 32 27 21 27 28 22 19 16 15 12 11 11 10 12 10 11 10 10 12 5 26 52 48 60 80 80 81 83 83 86 91 91 91 90
88 89 89 91 91 92 93 93 96 98 99 99 98 97 98 97 95 94 96 99 99 97 98 98 95 95 77 67 76 64 53 39 12 11 21 20 20 17 18 25 29 35 37 30 21 20 23 24 24 25 27 29 31 30 27 26 23 23 24 20 17 16 14 12 11 11 11 11 10 11 12 10 11 10 26 43 50 75 88 81 83 84 85 88 91 90 89 90
91 91 90 92 94 95 95 94 98 100 97 95 95 96 93 86 81 75 77 89 97 98 98 99 96 80 72 86 74 29 15 19 14 23 30 25 23 18 17 22 28 37 36 28 21 18 21 23 24 24 26 27 25 26 24 24 27 24 21 19 17 15 14 13 11 10 10 11 10 10 11 10 10 10 17 35 60 84 86 83 88 86 89 91 90 89 87 91
87 89 86 88 91 89 89 87 89 94 90 81 72 73 68 60 56 48 47 58 73 93 98 96 98 76 71 87 59 17 9 13 19 27 29 29 27 22 22 22 27 37 33 26 20 18 20 22 23 22 23 24 22 24 22 22 25 20 17 16 14 14 12 10 9 9 9 10 11 10 10 10 10 9 9 29 64 85 88 90 91 89 91 90 89 88 85 90
62 61 59 62 66 70 77 81 81 81 79 70 56 50 45 42 40 32 33 35 43 81 100 95 97 85 82 86 53 20 12 13 21 26 25 26 27 26 27 27 29 33 30 25 22 17 17 20 21 22 23 23 19 19 18 17 17 13 13 13 12 12 11 11 9 10 10 9 11 11 10 10 9 9 9 29 65 85 91 94 91 90 92 89 89 90 88 90
38 34 36 41 46 57 71 82 87 80 74 63 47 40 35 32 32 24 26 27 33 72 101 97 97 94 90 87 61 24 12 20 24 23 21 17 19 20 23 29 29 29 27 24 23 17 15 18 19 24 26 24 22 21 18 13 12 12 13 13 14 14 11 12 11 10 10 9 11 10 11 13 10 10 10 28 66 86 91 95 92 91 93 91 90 90 91 92
28 28 32 39 46 56 69 84 93 90 83 61 39 35 30 24 23 21 22 21 35 77 101 97 98 98 86 67 41 16 10 18 19 19 18 13 17 19 19 24 24 24 24 20 18 13 15 18 20 25 24 23 26 22 16 13 13 13 13 13 15 16 16 14 11 10 9 9 11 10 14 18 14 12 10 23 64 89 94 97 92 92 94 92 92 93 93 94
22 23 26 31 36 47 63 77 86 89 82 55 33 31 23 17 18 18 21 20 44 84 97 95 97 96 88 57 22 11 15 20 25 25 21 20 24 23 19 22 23 21 21 18 13 11 16 18 19 23 20 21 23 19 17 16 16 15 13 17 19 18 20 17 14 13 9 11 12 9 16 21 15 14 9 19 61 90 96 97 93 92 94 93 95 95 94 95
17 19 19 20 22 31 49 64 75 81 71 45 28 23 14 13 14 14 19 29 61 88 86 89 93 95 96 64 24 18 26 34 38 30 24 28 30 26 19 21 24 21 18 16 12 12 15 17 19 22 20 20 18 18 23 21 23 23 15 25 31 21 21 20 15 15 10 10 12 9 17 20 14 13 9 18 56 85 93 96 94 94 95 95 96 95 95 95
17 19 16 19 18 22 44 63 73 73 63 43 24 16 11 12 14 21 33 47 74 90 84 84 88 93 86 55 29 24 29 34 33 27 26 30 29 22 16 19 24 21 19 15 12 12 13 16 19 21 21 19 19 19 24 25 32 37 25 29 36 24 24 23 14 15 11 9 11 10 16 18 14 14 11 19 50 75 88 94 94 96 97 96 96 95 96 95
18 19 16 20 17 21 47 70 78 71 59 43 25 12 11 21 29 39 58 70 79 83 82 84 90 88 62 35 29 26 27 28 25 27 28 26 22 16 15 23 24 21 21 16 16 15 16 19 19 27 30 24 27 26 26 29 33 39 31 30 36 28 26 24 17 16 12 10 11 10 14 15 14 15 11 19 43 63 78 90 94 97 98 96 95 94 96 98
18 19 17 18 17 25 48 69 80 75 60 43 28 15 18 47 61 60 74 84 86 83 80 87 86 67 42 36 37 30 27 27 23 26 27 25 22 16 18 24 23 23 23 20 23 21 20 25 23 31 35 25 26 28 30 32 28 30 28 28 36 33 26 24 20 17 12 11 13 12 15 15 14 14 10 15 37 55 65 80 93 97 98 96 94 95 95 98
18 19 17 18 18 25 42 60 73 73 59 34 18 21 40 71 76 72 86 92 91 79 68 79 71 38 28 36 35 27 23 22 22 22 24 28 26 22 22 23 24 25 26 28 30 25 22 27 27 28 31 30 31 28 24 25 24 23 23 27 34 30 25 22 19 16 12 12 14 14 15 14 12 12 10 12 30 50 55 69 90 96 96 95 94 95 95 97
20 18 16 18 19 25 37 51 60 61 58 43 29 35 50 60 57 64 86 95 92 74 56 65 64 40 32 31 25 24 22 20 22 22 23 26 27 29 27 24 24 25 30 34 32 29 25 29 33 31 32 35 39 37 28 24 25 23 22 26 27 25 23 20 18 16 13 16 19 17 16 15 14 13 12 12 25 44 51 63 87 97 96 96 94 95 95 96
18 16 18 18 21 27 34 46 52 53 62 61 51 49 45 37 38 44 55 65 69 67 61 56 55 48 37 29 25 25 27 27 26 24 23 22 24 29 26 23 26 30 35 33 31 29 25 32 35 32 35 34 37 45 40 30 27 26 25 26 25 24 22 17 17 17 14 20 25 23 21 20 17 15 14 14 19 32 44 58 81 96 96 94 95 95 96 96
17 20 19 19 24 26 32 45 49 52 60 59 59 64 52 34 35 36 36 46 47 50 60 54 50 48 36 31 30 26 32 35 30 26 23 19 19 23 23 23 27 34 35 30 31 30 28 35 33 30 38 34 33 40 39 35 33 31 29 28 29 25 22 20 20 22 18 21 28 27 27 25 21 20 19 18 15 21 37 50 67 88 95 94 95 95 97 99
21 22 22 25 26 24 31 41 47 58 61 59 66 69 50 34 39 41 41 53 48 37 45 50 49 47 38 33 31 31 37 38 33 27 22 20 19 21 22 23 26 32 35 33 35 37 36 37 30 29 34 30 30 34 35 36 36 39 36 32 32 26 24 25 23 26 25 25 29 26 28 28 24 25 20 18 20 22 34 44 56 77 87 90 91 92 97 100
24 24 32 33 29 31 31 35 54 66 58 58 64 52 40 42 49 49 47 56 55 39 35 35 37 40 36 29 27 34 38 34 33 27 20 20 20 22 21 23 29 31 32 32 34 37 33 30 28 29 31 30 31 33 35 36 36 44 44 35 33 28 27 27 24 28 31 31 31 25 30 34 34 37 27 23 27 23 33 52 61 72 79 85 90 92 96 99
27 34 46 45 50 45 26 41 70 65 52 54 51 41 41 47 48 47 52 63 60 45 34 28 30 33 28 25 28 34 35 33 31 25 20 19 19 22 22 23 28 33 32 30 32 36 30 27 27 26 29 30 30 32 36 38 36 39 43 38 32 28 27 26 26 29 31 34 31 25 31 37 39 39 31 30 30 24 38 61 68 74 82 89 95 97 97 98
34 45 61 68 72 51 29 56 70 51 52 53 41 41 41 41 46 45 59 78 67 50 40 30 29 28 21 25 31 30 32 32 28 23 19 18 16 19 23 25 26 31 33 27 29 32 28 26 23 24 30 30 30 31 32 36 34 33 43 41 29 27 29 29 29 30 35 39 33 29 33 34 35 36 37 39 40 46 58 67 72 80 90 95 97 98 98 98
42 53 76 87 83 74 66 72 66 53 55 44 37 42 34 34 40 37 55 72 57 46 42 29 24 21 18 23 26 23 24 24 25 24 20 18 16 17 23 28 26 25 26 26 32 31 24 24 24 26 29 30 30 29 29 33 31 35 47 43 31 30 32 32 32 33 41 41 35 39 36 30 35 42 45 45 53 75 82 77 83 90 95 100 98 97 98 98
48 61 89 95 83 87 87 83 88 79 49 30 39 41 30 33 37 42 64 57 31 29 31 24 21 16 16 22 22 20 20 21 25 26 21 17 17 18 24 28 27 25 22 26 37 34 24 23 25 26 28 31 28 23 26 28 27 31 34 33 30 28 29 33 33 35 41 32 29 45 38 27 46 60 54 52 66 91 97 88 93 98 98 101 99 97 97 95
55 68 91 95 75 69 78 91 95 66 30 28 44 39 29 33 36 51 70 53 26 23 21 21 21 16 19 24 22 20 19 20 23 24 21 18 18 20 24 26 25 24 20 23 33 30 22 22 22 23 26 28 23 20 22 24 25 23 23 27 26 27 31 32 33 32 32 30 28 41 38 27 48 70 69 71 77 89 100 97 96 100 100 98 99 99 96 94
59 68 81 91 78 66 78 87 65 36 29 38 45 39 30 42 57 59 57 46 32 23 19 20 19 16 19 24 24 21 19 20 20 21 21 20 20 18 21 22 22 28 27 23 26 25 20 23 23 20 20 21 18 18 19 21 21 19 24 26 23 36 43 40 51 44 30 39 36 37 45 33 39 65 77 82 78 79 97 102 98 100 100 98 99 97 94 93
58 62 73 89 89 83 81 67 42 31 37 43 47 40 29 48 73 67 49 41 37 29 22 21 18 14 15 19 24 23 19 21 21 22 24 23 23 23 24 25 25 35 37 28 30 34 25 22 24 20 19 18 15 17 19 19 20 20 27 26 24 45 47 42 61 49 31 48 47 42 50 36 36 64 83 90 87 85 93 99 99 100 100 99 98 95 92 91
49 51 62 76 88 92 75 48 35 35 38 46 53 51 44 45 55 62 52 39 39 36 25 20 18 15 14 16 23 24 20 20 22 24 27 27 30 30 28 33 35 36 43 45 42 40 32 26 24 21 20 17 15 21 23 21 22 23 30 33 31 39 37 45 63 52 43 51 46 49 50 37 49 73 86 97 98 92 89 90 94 98 100 99 96 96 93 89
40 45 51 55 66 73 61 42 37 43 46 49 56 66 65 48 43 58 59 42 37 33 23 20 17 16 16 15 20 23 21 24 26 25 26 28 32 32 27 34 37 33 46 56 45 36 34 33 28 20 19 18 16 22 24 25 27 23 28 33 35 39 37 50 64 54 47 41 36 47 39 35 65 82 88 99 98 92 88 86 92 95 98 100 98 98 96 90
35 47 52 46 45 50 56 52 47 56 57 49 58 63 45 34 46 62 65 54 39 25 20 21 18 16 17 16 18 20 25 35 37 31 31 31 35 39 34 32 32 32 41 46 42 41 37 37 36 23 18 19 17 18 21 29 29 22 28 28 33 50 47 46 54 45 40 40 43 51 41 45 78 89 89 94 87 86 88 88 93 94 96 99 97 96 97 95
33 49 56 43 37 44 51 52 56 67 62 53 67 63 38 39 57 64 66 55 35 23 22 21 17 18 22 21 19 18 24 43 51 42 37 37 40 48 41 31 31 34 37 43 48 43 32 37 41 26 18 18 16 16 17 24 27 25 30 24 24 42 43 45 57 51 51 56 52 62 71 76 87 87 86 88 83 83 87 90 95 95 96 99 97 94 95 96
30 47 58 42 38 43 40 47 64 69 61 57 60 55 53 56 49 47 50 37 26 27 25 24 20 23 32 30 22 17 23 48 61 49 42 40 39 46 42 32 31 28 29 46 53 39 28 38 40 26 21 18 13 18 17 16 27 34 30 24 26 31 31 42 52 49 54 53 48 70 94 92 86 81 80 86 89 87 88 91 94 96 96 98 99 97 95 96
30 53 70 52 44 44 38 50 65 65 66 63 54 52 63 62 44 40 39 28 28 28 23 31 30 25 30 30 24 18 22 46 58 47 50 53 43 46 48 40 35 28 25 34 41 37 31 34 36 25 18 18 15 15 16 14 24 33 28 27 29 27 35 52 58 54 53 45 49 80 100 93 86 84 84 90 95 94 93 93 93 94 93 94 98 99 98 98
46 70 79 60 49 42 42 54 59 70 82 74 73 79 74 61 46 37 32 28 33 29 25 34 36 28 27 27 28 25 22 38 52 51 56 59 49 49 55 49 40 38 32 26 31 41 36 30 39 33 18 25 29 17 19 27 24 25 29 29 29 35 46 50 49 53 52 48 57 75 86 90 90 87 90 97 99 97 96 96 95 94 93 94 96 97 98 99
69 81 72 57 52 43 46 55 59 79 89 78 84 83 62 56 50 38 35 36 34 33 35 34 29 31 33 28 29 33 31 37 51 56 53 54 50 49 57 54 44 48 45 32 34 47 44 33 42 45 25 24 39 33 34 46 34 19 24 28 35 54 59 44 41 50 52 58 67 69 75 88 91 89 89 91 95 97 96 97 98 96 95 96 96 97 98 98
83 83 68 57 53 47 50 57 68 88 87 76 83 76 57 56 51 40 41 42 37 39 44 39 32 37 39 30 28 34 35 37 52 63 61 61 56 50 59 55 49 59 54 40 43 52 52 41 44 57 40 27 46 48 39 47 39 25 31 34 36 50 51 40 43 50 52 64 71 71 81 88 88 91 93 90 92 95 97 97 97 98 98 97 96 97 98 98
84 76 69 61 54 51 57 64 75 88 86 82 86 77 63 57 52 48 44 42 42 40 41 40 39 43 40 33 33 33 30 36 55 67 65 64 57 51 57 52 50 62 57 52 52 48 51 50 49 61 48 33 48 49 37 43 47 47 54 51 46 52 49 39 43 51 59 72 74 73 86 92 91 96 98 96 93 93 95 94 94 97 98 98 99 98 99 99
86 75 65 62 59 55 66 81 86 84 83 86 82 68 61 56 52 51 43 40 43 39 37 37 37 40 38 35 34 31 30 34 48 60 62 63 59 51 51 49 49 54 57 67 64 54 63 61 51 58 53 41 44 41 38 43 47 56 64 65 70 72 57 44 49 58 58 61 68 77 86 89 90 95 97 98 96 93 95 93 93 97 97 98 100 98 99 98
86 76 58 61 66 60 68 85 90 85 80 81 76 64 60 58 54 51 45 45 46 42 38 36 35 35 33 35 33 30 31 32 41 57 64 64 57 49 51 54 51 49 55 68 66 62 72 66 53 62 66 59 51 41 40 43 47 57 63 70 78 73 63 61 68 72 62 56 65 77 86 89 90 95 96 97 95 92 95 96 95 98 99 98 99 98 99 99
84 77 65 63 56 52 64 72 76 83 83 82 81 70 60 58 55 51 51 52 50 45 42 40 40 39 36 40 40 38 40 36 39 52 58 57 51 45 53 55 48 47 52 60 57 53 69 75 62 58 62 65 61 53 51 53 56 62 65 70 71 69 72 68 62 60 57 59 63 65 81 96 96 95 96 94 93 91 94 97 96 98 100 99 100 100 98 98
79 73 72 65 52 57 73 78 79 86 88 88 85 75 68 63 53 48 54 59 51 43 46 48 45 44 46 52 51 51 51 45 46 53 56 60 53 44 52 56 51 53 57 64 60 49 67 87 73 61 70 76 75 72 68 68 70 69 69 72 71 69 65 54 50 48 44 58 73 73 86 100 97 97 97 95 97 97 97 99 98 98 99 98 98 97 95 94
71 67 67 62 62 70 76 81 87 83 83 89 82 70 72 70 56 47 52 56 46 40 48 50 46 47 54 61 63 59 56 54 56 60 62 65 58 47 50 57 61 66 66 71 74 66 77 91 82 77 83 81 78 76 70 72 78 74 71 74 79 79 69 62 68 63 53 70 90 90 94 100 99 99 99 98 100 99 99 100 99 99 97 93 89 85 84 82
67 64 67 60 62 74 75 77 85 78 72 79 72 62 68 70 60 52 51 52 45 43 52 50 46 51 54 63 70 62 59 65 64 62 62 61 61 57 52 52 58 65 65 66 76 85 90 89 83 83 81 76 76 71 65 71 77 77 80 83 87 89 83 79 80 74 67 71 80 88 94 97 99 97 97 100 100 99 100 98 96 94 87 79 73 69 69 68
61 57 67 59 52 68 71 63 74 79 69 70 71 66 67 66 63 59 53 50 45 44 55 55 51 53 50 57 69 60 60 70 65 64 65 56 59 67 61 56 57 59 65 69 75 90 98 89 83 87 86 84 82 74 72 80 82 84 92 93 93 93 90 92 95 91 82 73 77 92 96 95 98 97 96 100 98 96 95 89 84 81 73 66 63 61 62 60
68 64 70 65 58 70 73 62 71 77 65 69 75 66 62 63 61 57 51 56 58 53 55 57 55 54 49 59 74 65 58 61 58 65 68 56 63 74 65 65 68 63 72 80 76 82 92 89 87 92 91 88 87 81 78 83 86 87 90 91 94 96 95 98 101 97 92 88 90 97 97 97 100 98 97 98 91 84 79 74 75 74 68 64 61 59 59 57
70 64 69 77 73 76 78 71 75 74 65 73 69 53 57 61 55 55 53 54 60 59 57 58 57 56 53 60 69 60 53 55 52 58 60 53 68 78 63 62 68 63 74 86 76 73 80 81 85 94 95 92 91 86 81 82 84 86 88 89 91 95 95 98 100 97 97 99 96 94 97 101 98 96 97 92 82 77 76 75 76 75 69 64 62 62 62 60
60 55 69 85 78 69 66 61 72 79 71 70 65 54 56 55 48 57 59 50 49 54 57 58 56 56 57 60 59 52 55 61 54 51 51 49 62 70 61 57 53 50 72 91 85 81 85 84 85 91 96 96 92 87 86 84 80 83 90 91 93 98 97 95 96 95 94 97 97 97 99 100 96 94 93 88 80 78 81 84 86 85 81 74 69 69 69 67
62 60 74 85 70 60 62 61 72 83 68 58 66 63 55 53 52 57 59 55 49 44 47 52 51 50 53 53 48 44 49 52 46 44 43 40 49 56 52 50 46 49 75 96 92 90 93 90 89 91 93 96 95 92 90 86 83 88 92 90 93 98 97 95 96 95 93 93 96 98 98 98 96 93 90 90 87 83 84 89 92 93 91 86 80 76 73 72
Wind_Speed
14 13 13 13 13 13 13 13 13 13 14 14 14 15 15 15 15 15 15 15 14 14 14 15 15 16 16 16 16 17 20 22 24 16 10 15 16 12 10 6 6 17 16 10 7 5 5 4 4 5 4 3 2 1 2 3 2 2 3 2 2 4 5 5 5 5 3 6 7 10 8 7 9 6 3 6 8 6 7 6 4 5 6 9 15 24 29 30
14 13 13 13 13 13 13 13 13 13 13 14 14 14 15 15 15 15 15 15 15 15 14 15 14 15 16 16 15 16 21 23 21 16 12 11 11 8 10 8 8 16 17 12 11 7 7 3 5 5 4 2 1 2 2 2 3 3 3 2 5 5 5 4 4 3 3 7 9 13 7 6 7 4 3 3 3 4 8 6 5 9 10 11 16 23 26 28
13 13 13 13 13 13 13 13 13 13 13 14 13 14 14 14 15 14 15 15 15 14 14 14 14 14 15 15 14 16 20 18 12 9 6 10 11 8 10 15 11 14 13 9 11 12 8 5 8 6 3 2 1 2 2 2 4 3 3 2 6 5 5 5 5 5 6 9 10 12 6 6 8 4 1 3 3 3 6 5 7 9 11 12 13 17 21 25
13 13 13 13 13 13 13 13 13 13 13 13 13 14 14 14 14 14 15 14 14 14 14 14 14 15 15 14 14 15 15 8 4 4 3 8 13 10 12 20 12 12 10 4 5 11 8 5 8 5 2 2 2 1 2 3 2 2 4 5 6 3 6 8 5 7 8 9 8 9 9 9 9 2 2 5 5 1 4 8 10 14 16 16 14 14 15 16
13 14 14 14 14 13 13 13 13 13 13 13 13 14 14 14 14 14 14 14 14 14 13 14 14 15 14 13 11 11 8 3 3 4 4 8 14 9 13 21 14 12 10 6 5 9 8 3 5 3 2 2 2 1 3 4 2 1 4 7 7 3 6 9 5 7 8 7 8 8 8 8 5 1 4 6 6 4 6 8 12 18 19 17 17 14 12 12
13 14 14 15 15 14 14 14 14 13 13 14 13 14 14 14 14 14 13 13 14 13 13 13 13 14 13 11 7 5 2 1 7 7 9 12 12 6 14 20 14 13 11 9 7 8 6 3 4 2 2 1 3 4 4 3 3 2 5 6 7 5 6 8 6 9 7 7 10 8 6 5 4 3 5 7 6 4 2 5 9 13 16 18 17 14 13 14
13 14 15 15 15 15 15 15 15 14 14 14 14 14 13 14 13 13 13 13 13 13 13 12 13 13 11 9 3 2 2 6 13 10 13 13 8 3 15 21 15 14 13 10 8 7 5 5 4 3 3 1 3 4 5 3 3 4 5 6 7 6 7 9 8 10 9 8 12 8 6 8 9 6 2 6 7 2 5 8 8 9 13 17 15 13 14 14
13 14 15 15 15 15 15 15 15 14 14 14 14 14 13 14 13 13 13 13 13 12 12 11 11 10 10 7 2 2 1 9 13 11 14 12 6 2 17 22 16 15 15 12 9 7 5 6 5 3 3 2 3 3 4 2 1 5 7 6 6 6 8 9 8 9 10 8 10 8 8 12 12 4 3 6 7 3 10 11 11 11 14 14 13 14 14 13
13 14 14 14 15 15 15 15 15 14 15 14 14 14 14 14 13 14 13 13 12 12 12 11 10 7 6 5 3 3 5 6 9 11 9 6 4 5 15 18 17 16 13 12 10 9 6 5 6 4 4 4 3 3 3 1 3 6 7 6 6 7 8 8 7 8 9 6 5 6 9 14 8 2 3 3 1 5 10 13 13 14 14 13 12 14 14 13
14 14 14 15 15 15 15 16 15 15 15 15 15 14 14 14 13 14 13 13 12 12 12 10 9 6 4 2 4 2 6 5 7 8 6 2 2 8 13 13 17 18 11 9 11 11 7 6 6 4 3 2 3 4 3 4 4 5 5 6 7 9 8 7 7 8 8 5 5 6 10 14 5 1 4 1 6 7 11 12 12 14 14 13 12 12 12 12
15 15 15 16 16 16 16 17 17 16 16 16 16 15 15 15 14 14 13 14 13 11 10 8 7 4 2 0 3 4 6 3 3 7 10 5 1 5 11 11 15 19 13 8 12 17 11 8 6 3 2 1 2 4 4 5 3 4 3 6 7 7 7 6 7 8 4 4 7 8 10 12 4 1 6 5 9 9 13 12 11 13 12 12 13 11 8 9
15 16 17 17 17 17 17 17 17 17 17 17 17 17 17 16 16 15 14 14 12 10 8 7 5 1 1 1 5 12 6 1 2 2 5 6 8 9 9 11 13 17 16 9 12 20 16 8 6 3 3 1 2 3 4 3 2 3 1 4 8 7 7 6 6 7 5 4 6 6 5 9 3 5 8 5 10 10 12 13 12 12 9 10 11 10 7 7
16 17 17 17 18 17 17 17 17 18 18 18 19 18 18 18 17 17 16 14 10 8 7 5 3 1 1 1 9 16 14 11 13 14 17 17 18 17 14 14 14 16 18 13 12 17 17 11 7 5 2 1 1 2 4 4 2 3 1 1 5 7 7 6 4 4 5 4 4 6 2 7 6 10 9 3 10 11 11 12 13 10 8 9 8 7 7 8
16 17 18 18 18 18 18 18 18 18 18 20 20 20 20 20 19 18 17 12 8 6 5 2 1 1 1 6 14 18 17 16 19 22 22 19 17 16 15 15 15 16 18 19 14 10 14 14 5 2 2 1 4 4 5 5 2 2 3 2 2 2 6 7 4 2 2 3 5 8 4 6 8 12 9 5 11 14 12 11 12 11 8 9 8 6 7 8
17 18 18 19 19 19 20 19 19 19 19 21 22 22 22 21 21 20 14 8 5 3 2 3 3 2 1 10 16 13 9 9 16 20 17 17 14 12 14 14 16 18 17 20 17 7 8 11 4 1 3 3 2 3 4 4 3 2 2 4 3 2 5 8 5 3 5 4 4 7 4 5 7 12 9 5 11 14 13 12 12 12 10 9 7 7 8 7
17 18 19 19 20 20 21 20 20 20 21 22 23 22 23 23 20 15 8 5 4 3 4 3 3 3 1 7 9 7 7 8 11 11 10 16 16 14 15 11 11 15 16 18 18 11 4 5 2 3 3 3 2 2 2 4 4 2 1 5 4 3 4 6 5 3 6 4 1 3 4 4 5 10 8 6 12 13 12 12 13 12 10 10 8 7 8 8
18 19 19 19 20 21 21 21 21 21 21 22 23 23 22 20 14 6 3 4 2 4 6 3 2 3 4 8 8 7 6 5 6 6 6 15 20 20 13 5 5 8 10 12 11 7 3 2 2 2 1 2 2 3 0 3 5 3 2 2 4 3 4 4 5 4 1 2 3 2 3 6 7 9 7 5 12 12 11 12 13 11 9 11 9 7 8 9
19 19 19 20 21 21 21 21 21 21 22 23 24 23 18 11 5 2 8 9 7 6 3 1 1 1 4 6 4 5 4 3 6 8 6 12 20 22 14 6 3 3 3 4 4 3 3 2 1 1 1 1 3 4 3 5 3 1 1 1 3 3 4 5 4 4 5 2 3 4 4 8 9 11 9 4 10 11 12 12 12 11 10 11 10 8 8 10
19 20 20 20 21 21 21 21 21 22 24 25 23 17 8 3 6 7 9 8 6 4 1 2 4 2 4 6 5 6 10 12 13 10 7 13 17 18 13 6 2 4 3 1 2 3 3 1 0 2 3 3 4 5 6 5 4 3 1 2 3 4 6 7 5 4 6 6 5 6 6 9 10 12 11 4 9 11 11 10 10 10 10 10 8 8 9 9
19 20 20 20 21 22 21 22 21 22 24 24 21 11 3 3 4 3 2 2 5 5 4 5 7 5 9 11 6 7 12 12 8 5 4 11 15 10 5 3 0 2 3 3 3 2 3 3 5 6 5 5 6 7 7 4 1 1 3 3 4 4 8 9 5 4 4 4 6 7 6 9 10 13 14 5 9 11 11 9 9 10 10 11 10 11 10 9
19 20 20 20 21 21 21 22 22 23 21 17 13 6 1 2 3 3 3 4 9 11 10 10 11 12 16 16 9 6 9 7 5 7 8 7 14 10 3 3 3 3 3 4 3 1 3 5 8 6 6 6 6 6 6 3 1 2 3 5 6 5 8 9 5 6 5 1 5 6 5 9 12 14 14 5 10 10 12 12 11 13 13 11 13 12 9 8
19 20 21 21 20 21 21 22 23 21 14 8 6 2 1 2 5 7 4 5 10 12 13 14 13 14 20 23 19 7 3 5 9 11 8 5 10 7 4 5 5 5 3 2 1 1 2 6 7 5 6 5 3 2 4 3 3 3 2 2 5 4 6 8 5 5 3 2 5 8 5 10 13 13 13 8 8 9 13 16 16 16 14 12 14 12 10 10
19 20 21 20 20 21 20 22 23 13 5 7 7 3 4 8 13 11 2 2 10 8 10 13 11 11 16 18 15 8 4 6 7 10 5 7 7 6 6 6 7 5 3 4 5 4 4 6 7 6 5 5 3 3 3 2 2 3 3 2 5 3 2 5 4 4 3 2 6 8 6 8 11 10 10 7 6 7 10 15 15 16 16 16 14 11 11 12
19 20 21 21 21 20 20 23 15 2 6 14 11 6 10 14 15 9 1 1 7 5 7 14 10 9 14 11 10 13 6 6 6 8 8 9 5 4 6 6 6 5 4 7 8 7 8 7 5 6 6 6 6 5 4 4 3 3 6 6 5 4 4 7 6 5 5 4 5 3 5 6 6 7 8 5 3 7 8 9 9 10 11 10 9 9 10 11
19 20 20 21 20 21 22 17 3 1 15 14 6 9 14 15 15 5 2 1 5 5 5 9 5 7 11 6 12 13 4 4 7 8 8 12 9 4 4 4 4 6 7 7 7 7 11 7 5 6 5 6 6 6 5 6 4 4 6 9 9 8 9 10 7 5 5 5 4 1 4 6 6 6 7 5 3 4 5 9 10 8 7 8 10 10 10 11
19 19 19 18 19 23 19 6 3 13 16 5 4 12 11 13 15 2 3 4 3 5 3 2 2 6 8 6 9 8 4 4 10 12 9 12 14 7 3 2 1 5 6 5 4 3 6 5 6 7 6 6 6 6 5 8 5 5 6 10 12 11 10 10 7 1 1 5 4 3 3 5 7 6 7 6 5 5 2 6 9 8 8 9 10 11 11 12
19 19 18 17 18 20 12 5 13 16 6 1 9 13 9 13 12 1 3 5 4 4 1 0 1 4 5 7 10 8 3 3 4 12 13 13 12 6 5 4 2 4 4 3 2 3 4 5 5 6 5 5 5 6 6 10 7 5 6 8 9 9 9 9 6 5 4 4 3 3 4 3 5 5 6 6 6 8 6 4 6 7 10 11 11 11 11 12
19 18 17 16 16 15 9 11 15 9 2 6 13 11 10 13 7 2 4 3 4 3 2 1 1 4 2 7 12 6 4 3 3 6 11 16 11 5 6 7 6 7 5 6 4 4 3 5 7 7 5 4 6 7 7 11 6 9 8 8 7 8 9 8 6 5 3 2 5 5 2 2 5 5 6 5 6 7 5 3 6 8 12 14 12 11 12 13
18 17 16 16 17 14 9 10 10 6 7 11 12 11 13 11 4 3 4 0 3 2 0 1 1 1 2 5 10 6 3 2 2 2 6 12 11 5 5 7 8 8 5 6 7 6 2 6 7 6 5 5 8 9 8 12 8 8 6 5 3 3 3 3 5 4 1 1 6 7 1 2 5 5 5 5 6 5 4 1 4 8 14 14 10 12 14 13
18 18 17 16 16 13 6 10 12 7 8 11 12 13 12 6 3 4 0 3 2 3 1 2 4 6 4 2 5 6 5 2 1 3 5 3 6 4 1 2 5 3 2 1 5 6 3 2 4 5 5 6 8 8 7 15 12 3 3 3 3 1 2 1 2 3 2 2 7 8 5 4 3 5 2 2 3 3 3 2 5 9 12 11 10 12 14 12
20 20 18 16 13 9 5 7 7 4 7 11 13 12 7 3 4 3 3 4 2 3 4 4 6 9 7 4 4 5 4 4 2 4 4 2 3 3 1 3 2 2 2 4 4 5 6 2 3 4 6 6 5 6 4 9 10 3 3 2 3 3 4 3 4 4 2 5 7 7 5 6 3 4 3 5 6 5 7 7 11 14 12 10 10 12 11 11
21 20 18 16 12 10 8 6 4 5 8 9 9 6 4 3 1 2 3 4 3 2 4 6 8 10 11 7 4 4 4 3 2 4 5 4 5 6 4 3 4 2 2 5 3 5 6 4 4 3 5 6 5 5 4 1 4 5 3 3 3 2 3 2 3 0 2 6 6 4 3 4 3 4 5 9 7 1 5 5 8 13 13 11 11 11 11 12
21 19 16 13 10 13 11 6 6 7 7 5 5 4 6 3 2 4 3 3 1 3 4 5 10 11 9 6 4 3 4 4 2 1 2 4 5 7 6 4 5 5 3 4 2 2 4 5 4 2 4 4 7 4 3 1 3 6 5 4 4 2 1 1 4 1 3 5 4 3 1 1 3 3 5 8 6 3 2 2 2 6 8 9 8 7 7 8
19 16 13 8 8 11 10 5 3 3 2 2 3 5 4 2 3 3 2 3 3 4 5 6 12 11 5 2 4 5 2 1 0 2 2 2 4 5 5 3 4 5 2 2 2 3 3 4 4 5 4 2 7 8 7 5 5 5 5 6 5 4 4 3 4 3 4 3 3 4 0 0 1 3 7 5 4 5 5 4 4 4 5 8 8 8 7 5
16 13 10 8 7 7 4 6 5 2 1 3 5 5 3 3 3 1 1 3 2 5 8 9 8 5 4 3 4 6 2 1 2 2 3 3 4 4 4 5 5 5 4 3 2 2 4 5 7 6 3 1 3 6 6 6 3 3 2 5 3 4 6 2 3 5 3 1 2 3 1 1 2 3 7 4 4 6 7 7 8 7 4 5 8 8 7 5
14 10 7 5 4 1 5 10 8 4 3 5 5 2 3 4 2 2 1 2 2 5 9 9 4 2 4 4 4 8 5 1 1 1 1 2 3 4 3 3 5 6 6 4 3 1 2 5 7 4 4 5 6 4 3 4 4 1 2 3 3 4 7 3 2 1 1 1 1 1 1 3 2 3 6 5 4 5 5 7 10 10 9 6 4 6 8 7
16 11 3 3 3 5 8 11 9 5 4 6 4 2 3 3 3 3 1 3 3 4 4 4 3 2 3 4 5 8 6 2 0 1 1 1 0 2 2 1 2 6 7 4 2 3 2 4 6 4 5 8 5 3 2 2 4 4 2 5 3 3 5 3 2 2 3 2 3 1 2 2 1 1 4 3 2 2 2 3 8 10 8 5 3 4 6 6
16 9 3 2 5 10 10 10 8 4 4 5 1 2 2 2 2 2 2 3 3 3 2 1 3 1 3 4 5 6 5 3 2 1 1 1 1 1 2 1 1 1 1 3 2 2 2 2 7 4 5 7 3 2 2 5 1 4 4 3 3 2 1 1 2 1 1 2 2 2 1 2 2 2 3 3 3 3 2 1 4 9 9 5 2 4 5 5
10 4 3 1 8 12 12 10 5 3 4 3 0 2 2 3 4 3 3 3 2 2 1 2 2 2 4 3 4 5 4 2 2 1 1 1 1 1 1 1 1 4 5 4 4 2 1 1 5 5 3 4 5 3 1 4 4 2 3 1 2 3 4 2 2 3 3 3 1 0 1 2 3 3 3 4 3 2 2 3 1 4 7 6 4 4 5 5
3 2 2 1 10 15 12 7 3 5 3 1 2 3 2 2 4 4 5 4 2 2 2 3 2 2 4 4 3 3 3 2 1 1 1 1 2 1 2 3 2 1 5 6 3 0 2 2 3 6 5 3 2 1 4 4 1 2 2 1 2 1 3 1 0 2 4 4 3 3 1 4 3 2 3 2 1 2 3 2 5 6 5 4 5 6 6 6
2 2 2 1 11 17 10 5 2 2 2 1 2 3 3 3 3 5 6 5 3 3 4 4 3 3 3 3 3 3 3 2 1 1 0 1 2 1 3 3 4 2 2 5 3 1 1 1 1 3 5 2 4 4 1 4 6 5 3 2 1 2 3 3 1 2 2 4 4 5 3 4 3 2 3 1 3 2 4 3 4 7 7 5 5 8 7 7
3 2 1 4 14 16 8 3 1 1 1 2 2 3 3 4 4 3 4 4 3 3 3 3 3 3 3 3 3 2 1 2 2 0 0 2 2 1 3 1 3 4 3 1 2 1 2 3 2 2 2 3 7 5 4 1 6 8 3 2 3 2 3 4 4 3 1 3 2 3 2 2 3 2 1 2 4 5 6 2 2 3 3 5 6 7 8 7
2 1 1 7 16 12 5 2 3 3 1 3 3 3 3 3 2 2 3 2 1 2 1 2 2 1 2 2 2 2 1 0 2 1 1 2 1 2 4 2 3 3 3 2 2 1 2 3 2 2 3 4 6 6 5 5 4 6 3 2 3 0 1 5 5 3 3 3 2 3 1 2 3 3 1 3 7 7 5 2 4 3 3 5 5 4 7 7
2 1 1 6 10 5 2 1 2 3 3 3 3 3 3 2 2 2 3 2 2 1 1 1 2 1 2 1 0 2 2 1 2 3 1 1 2 4 4 1 2 2 1 2 2 1 1 0 1 1 3 4 5 6 6 6 3 3 1 2 1 2 3 2 1 2 2 3 4 5 2 3 2 1 1 4 7 6 3 4 6 3 3 5 5 4 6 7
2 0 1 0 2 1 1 3 3 2 4 2 3 4 4 3 3 3 3 3 3 1 0 2 3 1 2 2 2 3 3 1 1 2 3 2 3 5 6 4 3 2 1 1 3 3 3 1 2 3 2 2 1 2 3 3 3 2 1 2 2 5 6 2 1 3 1 2 3 5 3 3 3 2 2 5 7 6 4 5 6 3 3 6 6 7 7 7
2 1 1 3 4 3 1 1 4 3 2 0 1 3 3 3 4 3 3 2 3 3 1 2 3 1 2 4 3 4 4 3 2 3 3 4 3 3 6 7 6 5 5 7 7 3 4 3 1 3 4 4 4 5 5 2 1 2 3 4 2 3 5 5 3 2 2 2 3 0 5 8 7 6 5 5 6 6 5 6 6 5 6 7 8 8 8 8
2 2 2 1 2 3 2 2 2 2 1 2 2 2 3 3 4 4 2 1 4 4 2 2 4 3 2 3 2 2 5 4 4 4 3 4 3 3 6 7 8 8 6 6 6 3 4 3 3 2 3 2 1 3 4 1 3 1 3 6 6 3 5 7 4 1 3 4 1 3 6 10 9 8 6 5 5 5 6 6 6 5 6 7 8 9 10 10
1 1 2 3 1 0 1 1 1 1 0 1 2 1 2 3 3 3 3 3 4 4 3 3 6 5 3 2 2 1 5 4 3 3 3 5 4 5 6 6 7 9 6 4 4 3 5 1 2 1 3 6 6 6 6 5 4 4 6 7 7 6 6 7 3 2 4 3 3 4 6 6 6 6 5 4 5 7 7 7 6 5 6 8 9 10 11 10
2 1 1 0 2 3 2 0 2 3 2 1 1 1 1 3 4 2 3 2 4 5 3 2 5 6 5 3 4 3 1 1 1 3 2 4 5 4 5 4 4 7 5 4 3 2 4 1 1 1 3 6 8 7 6 6 4 6 8 8 8 7 6 7 4 5 6 3 4 9 8 4 2 3 4 5 7 8 8 7 7 6 6 8 10 11 11 10
1 1 1 2 3 1 1 2 2 3 3 3 2 2 1 2 4 4 2 1 1 4 3 2 5 6 3 2 4 3 3 5 3 3 1 3 3 2 2 1 2 4 5 4 3 2 3 1 1 1 3 5 7 6 6 6 6 6 8 10 11 9 6 6 5 6 7 5 6 10 9 4 4 3 5 8 8 9 9 8 7 6 5 7 11 11 10 9
0 2 2 3 2 3 3 2 2 3 3 3 1 2 2 2 3 4 3 2 3 2 1 2 6 5 2 2 3 2 6 6 6 6 3 1 2 2 1 1 1 3 4 3 2 3 3 2 1 3 3 2 4 3 3 4 5 7 8 11 11 7 3 2 1 1 4 7 9 8 5 2 1 3 7 8 8 11 10 8 7 7 7 8 10 10 9 9
3 1 2 4 2 3 2 2 3 3 1 2 3 3 2 3 4 4 2 3 2 3 4 4 4 3 3 3 3 5 7 6 5 5 4 5 6 5 4 5 3 2 2 1 1 2 2 3 1 2 3 1 3 3 3 4 3 3 4 6 6 4 2 3 4 4 2 5 8 5 3 2 1 4 8 8 9 11 10 7 7 6 6 8 9 9 9 8
Wind_Direction
347 347 345 347 345 345 345 344 344 341 342 340 339 339 336 336 333 334 332 328 326 322 321 321 320 319 319 320 321 322 320 315 313 303 263 278 294 273 243 258 220 183 173 167 158 126 117 143 190 171 145 141 166 181 171 169 132 89 109 145 212 230 229 194 195 199 235 294 311 314 345 4 327 323 333 28 44 63 74 43 51 56 68 110 117 127 143 150
345 345 343 343 342 342 341 340 340 338 340 337 337 336 334 334 332 333 332 330 328 323 323 320 318 319 316 317 321 324 320 315 307 283 267 309 323 279 221 194 179 175 182 201 214 184 137 177 192 151 132 133 226 170 171 193 150 154 134 154 225 222 229 201 213 250 295 294 302 302 323 11 316 290 329 56 25 36 80 53 72 91 92 108 119 130 142 147
343 342 341 340 339 339 338 337 337 336 337 335 335 333 332 332 330 332 331 330 329 325 322 317 317 316 315 320 326 326 319 316 307 269 291 0 350 307 195 177 172 165 178 205 214 196 168 177 173 140 108 158 253 160 187 228 172 185 146 197 238 220 257 263 258 271 276 279 293 293 308 351 299 278 14 128 97 59 118 123 118 125 134 133 131 135 141 148
341 340 337 337 337 336 335 335 335 335 335 333 333 332 331 330 329 330 329 330 329 327 321 318 318 316 318 324 326 325 322 320 293 258 340 360 348 335 179 177 177 161 159 146 178 190 174 139 160 141 100 190 294 132 191 233 194 187 161 215 242 194 265 270 257 261 265 269 275 287 310 318 291 294 126 147 111 333 204 182 161 156 155 146 145 143 137 144
341 339 337 336 335 334 333 333 333 333 332 331 330 329 329 328 327 327 327 328 328 328 323 319 319 318 322 326 330 329 332 355 296 284 322 329 339 340 174 173 174 164 155 147 143 165 167 126 138 123 91 180 271 165 226 233 171 215 211 231 248 196 260 275 273 264 265 276 283 290 297 289 295 53 173 163 149 228 228 204 181 163 158 151 146 135 115 111
342 339 338 336 336 335 333 333 331 331 330 329 328 327 327 325 324 325 325 325 326 328 325 322 320 321 325 333 341 340 358 296 292 295 314 319 330 329 170 170 170 162 160 167 155 146 158 121 111 136 124 166 217 204 256 257 158 233 259 246 248 219 241 277 288 275 275 288 285 279 286 300 320 300 210 193 198 226 192 173 177 161 147 140 137 129 116 111
343 340 338 338 338 336 335 334 331 331 329 327 326 324 323 321 322 323 322 322 323 325 325 324 322 322 331 343 346 21 94 256 281 299 316 318 319 299 170 172 170 165 170 170 158 147 146 124 131 156 122 138 217 211 259 267 170 204 262 267 259 241 237 261 267 273 279 269 269 279 318 307 281 277 202 218 239 189 116 130 142 138 129 133 131 122 118 117
344 341 339 338 336 334 333 330 328 327 325 323 322 321 320 320 320 319 319 319 320 323 323 323 325 329 339 349 11 355 274 252 284 308 308 302 299 228 170 176 176 172 179 184 173 152 139 138 168 165 123 214 202 211 253 285 259 214 243 265 270 263 249 261 269 276 279 266 271 291 300 276 261 246 155 235 260 142 127 127 130 131 132 138 129 120 123 134
343 340 337 335 332 330 327 325 324 322 321 321 319 319 317 318 318 318 318 316 318 319 319 321 320 335 352 350 56 343 271 253 304 320 310 290 273 193 171 177 182 180 182 195 185 156 158 170 193 184 155 212 213 237 237 196 260 217 224 253 264 273 267 270 276 267 269 264 267 283 277 268 259 164 204 253 232 132 128 129 137 139 143 143 130 132 142 154
338 337 335 332 330 328 325 324 323 322 321 320 319 318 316 317 317 319 321 317 319 316 316 319 315 333 341 322 77 335 270 286 328 347 1 346 207 183 179 182 187 187 183 189 188 176 179 178 185 179 151 218 223 232 211 175 230 224 225 261 255 264 271 263 267 264 271 276 241 244 261 269 289 96 256 218 126 136 126 132 145 145 149 147 142 149 156 160
340 338 335 333 331 329 326 325 324 323 320 319 319 318 318 319 319 324 325 319 318 317 314 313 313 330 320 71 115 238 264 313 352 46 45 37 54 197 199 203 196 192 185 179 200 200 192 173 154 123 144 251 257 272 255 196 235 264 259 297 283 278 281 252 261 267 267 278 229 210 249 274 325 98 237 182 144 144 136 141 151 151 152 151 153 158 166 165
340 338 335 334 332 329 326 323 322 321 318 318 316 317 319 318 322 326 323 317 313 312 311 309 312 316 336 46 207 241 255 271 266 6 352 321 311 288 255 235 216 205 198 186 212 212 198 170 134 145 212 254 332 314 272 235 262 270 254 309 299 317 305 251 242 241 200 247 223 172 265 290 294 233 243 175 148 148 144 148 155 159 154 156 160 157 166 170
339 337 335 334 331 327 325 322 321 319 318 316 314 316 316 316 323 324 319 312 301 299 302 296 300 239 306 260 238 259 273 271 273 276 273 280 288 283 270 254 242 230 220 214 226 219 203 186 159 186 227 46 276 266 285 305 320 277 267 279 305 334 307 264 241 234 200 236 195 141 256 280 263 251 257 183 149 144 146 157 161 162 154 161 166 150 161 174
338 338 336 334 331 327 324 323 321 319 318 316 315 315 315 318 321 317 312 302 284 288 285 256 238 159 187 254 269 282 285 279 273 265 258 261 269 269 263 252 246 241 232 231 241 233 204 199 187 224 284 210 247 289 318 327 355 315 300 283 316 297 280 293 302 271 240 261 147 144 226 255 262 263 253 183 156 152 157 168 166 166 161 164 165 149 164 181
339 338 337 334 331 328 326 324 322 320 319 316 315 316 317 319 316 311 304 281 262 269 223 164 168 166 323 278 283 291 284 275 267 259 250 242 241 251 252 239 237 240 235 233 239 243 191 183 177 257 268 244 241 307 321 332 354 3 287 284 318 213 269 307 297 222 230 279 118 147 227 261 263 265 253 178 163 162 162 170 171 173 165 161 164 155 167 181
340 338 336 334 332 330 328 325 323 322 320 318 316 317 320 318 314 307 287 238 219 200 167 146 181 170 309 283 294 303 267 251 258 262 243 223 213 221 234 224 228 234 231 235 240 244 205 152 173 203 242 265 206 200 321 339 325 354 221 254 283 267 298 321 304 250 218 251 335 176 219 265 267 266 263 173 170 169 165 173 174 175 167 164 170 160 171 177
340 338 336 335 333 332 328 325 324 322 323 322 319 321 323 322 317 292 206 160 156 156 143 111 143 168 255 273 294 302 270 237 250 274 242 210 201 209 222 209 219 222 220 235 240 240 220 155 227 223 253 260 156 130 37 280 272 317 360 260 263 258 278 303 302 310 321 172 274 274 223 253 267 272 281 180 175 174 170 176 176 176 171 172 176 166 173 177
339 338 337 335 334 332 329 326 324 324 326 323 322 326 327 337 2 102 131 120 102 108 123 22 89 156 261 260 277 297 308 321 307 303 262 206 198 206 213 212 206 154 173 242 231 199 202 216 224 278 306 224 131 120 179 229 200 165 356 292 284 283 262 269 270 302 349 12 268 312 293 269 271 270 276 200 175 179 180 181 177 175 171 175 179 172 175 178
339 338 337 335 335 333 329 327 325 329 329 323 326 333 334 38 69 89 115 120 105 101 197 208 172 187 266 252 256 296 310 313 307 295 239 199 198 208 218 227 194 126 138 262 246 202 190 234 316 236 243 213 187 167 190 206 143 151 212 188 248 294 277 265 256 267 326 341 291 288 279 273 277 270 269 213 170 187 190 182 176 171 171 176 179 181 177 174
338 338 337 335 334 332 330 328 328 332 330 324 330 345 12 38 38 47 83 168 207 223 242 201 192 239 283 281 292 328 319 309 293 280 228 193 182 184 217 237 154 145 162 167 226 240 141 190 241 225 200 172 191 197 200 213 104 333 300 267 256 273 275 276 275 272 314 336 282 269 264 268 271 268 267 220 158 186 192 177 175 171 174 180 185 191 178 166
338 338 337 335 333 331 329 328 330 332 326 322 334 359 57 12 2 319 308 259 235 228 244 233 207 234 259 265 280 342 346 319 274 281 281 214 160 146 196 204 171 222 220 168 212 313 119 206 237 210 179 181 201 199 193 221 284 286 275 289 287 263 270 280 278 276 286 255 261 276 284 276 268 265 270 223 152 184 192 178 179 180 181 184 188 189 168 149
336 337 335 334 332 331 328 328 331 328 323 333 355 12 224 317 334 311 298 296 267 223 227 238 222 241 254 255 260 270 340 294 287 294 282 188 155 160 187 173 176 218 230 129 188 281 214 234 238 200 178 194 237 208 175 206 231 233 235 280 279 273 293 294 283 285 288 154 269 291 295 277 273 271 273 243 180 188 192 184 183 181 179 183 189 182 156 143
334 334 334 333 332 329 327 328 328 322 333 350 326 268 297 331 338 325 286 298 285 226 206 229 220 232 250 255 245 206 195 235 257 282 249 157 167 177 162 174 187 195 176 167 190 201 227 247 230 199 164 169 253 262 194 226 242 215 198 224 262 284 330 287 290 314 303 251 262 289 303 278 284 294 285 257 183 168 191 194 189 180 178 184 185 169 152 147
332 333 333 331 331 328 328 330 326 280 334 326 297 293 336 338 343 340 202 236 285 250 208 220 208 211 240 248 187 166 198 210 193 251 225 162 155 151 164 180 168 178 197 189 186 202 236 246 194 164 158 172 228 255 215 225 259 231 207 211 245 263 238 239 272 315 314 297 245 279 332 294 300 309 293 306 116 147 179 189 190 186 175 167 151 136 143 141
330 331 330 331 331 328 330 332 322 284 324 318 293 334 342 337 344 345 175 354 286 276 245 222 202 218 233 205 160 161 187 223 201 222 197 167 168 148 175 177 147 194 208 184 179 216 244 237 141 148 172 173 207 245 216 193 232 268 225 208 214 235 242 246 274 323 342 318 260 71 17 296 305 303 289 325 74 135 171 172 176 175 147 130 125 130 136 131
330 329 329 331 330 332 336 337 322 327 323 312 341 341 334 332 343 360 145 26 294 280 288 212 154 205 211 164 158 139 94 255 217 203 196 184 181 157 160 190 158 202 194 171 177 227 238 202 158 181 189 174 199 244 216 171 190 265 234 202 207 221 238 252 263 248 239 269 261 84 101 267 306 318 310 339 57 70 79 164 164 153 135 132 136 139 138 133
327 326 329 329 332 341 344 306 317 325 320 304 335 336 327 328 340 113 113 22 299 269 218 163 104 184 196 162 156 133 144 260 196 195 201 187 178 153 174 194 158 200 177 134 221 245 193 172 183 193 180 179 207 243 210 158 156 247 226 182 194 216 225 237 231 198 222 267 305 39 114 216 290 290 307 345 54 51 41 105 127 133 133 135 139 136 133 132
324 324 326 325 330 338 319 293 308 313 275 320 327 330 324 323 328 125 86 36 278 266 174 252 175 182 193 163 167 170 208 172 114 214 194 175 176 151 186 200 175 197 179 139 215 254 168 181 204 191 175 188 216 231 191 149 168 248 224 172 185 212 216 214 198 203 252 337 308 318 88 187 270 277 315 1 63 41 16 100 125 136 137 138 137 128 125 129
323 322 323 324 325 327 309 276 275 277 305 321 327 327 320 316 333 86 80 53 269 287 173 305 300 261 37 153 190 239 284 133 144 230 153 171 190 162 189 204 178 200 199 165 214 247 216 201 190 164 169 205 232 239 177 156 202 248 212 181 197 201 205 193 170 179 32 31 265 271 163 186 270 291 330 14 51 19 336 18 128 140 142 141 133 127 131 134
323 321 322 324 320 322 312 267 266 289 325 325 326 325 320 326 44 74 157 247 276 318 337 27 357 345 10 136 230 266 282 304 356 100 107 164 195 173 178 149 137 173 217 234 241 251 273 219 169 156 185 209 231 242 187 180 206 219 126 193 240 344 25 60 120 108 79 280 257 250 200 171 262 286 310 9 347 279 240 168 141 147 144 141 134 134 139 141
322 320 320 315 306 307 298 272 275 330 338 325 325 328 336 25 68 104 212 254 296 325 348 14 1 349 342 306 263 267 273 294 359 112 123 99 148 181 18 66 103 81 355 304 283 292 311 288 226 219 210 204 222 251 222 193 204 172 95 157 213 301 3 25 1 52 115 248 260 252 194 149 205 269 301 319 300 239 205 180 161 160 152 143 142 140 140 142
321 320 317 307 286 256 246 253 281 313 316 320 330 351 63 65 20 188 242 301 336 346 352 353 344 337 324 306 251 221 218 236 237 134 147 151 157 189 191 175 182 136 292 258 267 311 297 252 257 275 234 197 193 265 299 134 166 154 127 101 124 281 355 7 307 22 198 243 258 260 164 138 211 243 314 328 332 245 203 208 178 168 156 145 145 144 144 151
321 322 318 306 271 245 250 271 285 290 299 316 344 38 84 87 230 227 273 313 313 330 349 340 328 321 310 317 320 255 209 203 228 145 139 150 160 197 214 196 170 162 221 220 187 279 287 293 295 291 276 206 170 208 265 216 156 156 163 146 140 155 97 292 272 271 264 246 258 277 188 214 270 272 329 340 6 53 151 201 192 156 137 125 120 120 136 149
324 328 319 297 267 264 271 269 251 267 308 348 41 64 88 144 229 243 291 269 263 323 348 337 321 318 314 320 326 306 249 194 182 119 96 107 149 200 227 224 179 164 177 175 162 185 215 299 269 204 255 232 180 200 198 175 163 170 167 142 144 153 149 216 234 219 256 248 296 319 78 202 271 309 330 349 51 55 85 97 70 81 106 110 93 71 62 69
330 331 314 291 279 286 256 183 175 158 84 64 64 74 135 205 250 248 253 267 306 340 333 325 314 316 333 308 297 320 322 223 354 61 113 143 167 196 207 217 204 155 129 171 220 178 172 247 255 235 254 251 225 223 171 134 149 213 145 111 145 182 158 184 202 185 209 199 348 346 53 265 243 293 329 358 63 59 74 75 61 51 49 104 105 97 101 122
333 336 311 278 267 268 159 158 155 142 111 80 72 93 191 214 229 173 226 301 334 329 325 329 333 336 336 324 312 335 1 111 359 10 164 165 175 200 200 217 211 175 153 165 212 195 146 254 272 308 313 255 237 230 163 158 188 199 121 153 206 170 137 138 219 213 89 135 306 350 151 301 324 323 328 357 33 50 75 79 71 54 30 33 70 113 140 167
337 345 328 260 208 158 156 155 147 134 94 80 100 197 222 225 208 187 299 339 288 300 340 350 329 320 338 345 323 325 346 9 326 206 245 315 273 231 210 216 210 191 184 166 193 212 172 264 283 309 294 272 245 205 255 244 149 125 185 206 188 95 94 114 153 12 36 187 262 352 181 261 32 315 306 336 353 343 32 81 96 88 66 37 27 84 121 145
334 341 341 291 173 161 159 154 144 121 77 74 104 239 221 227 247 234 310 334 292 305 10 223 268 320 358 345 310 301 325 336 318 165 177 303 285 231 201 233 37 68 186 143 159 232 162 275 294 279 250 286 333 109 285 315 40 137 179 175 121 114 47 88 150 137 117 187 267 11 10 250 182 208 265 243 232 257 304 315 135 131 130 138 122 91 99 106
333 354 2 20 156 161 159 154 135 65 64 72 215 248 230 243 268 270 280 300 286 285 294 229 226 328 325 291 265 289 312 306 283 175 133 203 235 204 161 196 44 27 28 80 138 215 92 134 287 287 261 309 356 62 206 302 343 75 116 48 42 137 160 179 165 158 154 159 200 96 5 272 221 233 261 234 238 289 287 283 295 121 125 131 130 106 90 89
356 81 348 82 157 164 157 137 76 49 77 137 197 221 255 257 258 266 264 261 241 239 253 236 230 276 282 270 260 276 296 302 260 197 177 197 209 246 221 172 146 9 16 49 93 172 50 93 259 295 324 346 334 267 197 195 137 75 123 66 337 58 127 161 113 113 134 142 165 157 214 262 254 301 285 223 157 334 316 342 13 18 43 87 116 105 83 79
57 80 306 188 162 165 146 93 40 68 125 234 223 231 275 285 275 278 270 253 235 230 231 234 242 236 246 278 284 265 296 320 251 175 146 217 186 231 246 182 150 148 31 31 32 8 27 106 184 300 341 349 266 286 279 161 134 127 141 122 164 173 126 130 266 298 104 128 162 156 188 262 296 341 303 192 133 25 3 42 41 15 12 24 71 92 84 75
73 76 285 173 165 162 126 58 296 99 128 240 251 253 277 287 276 275 277 268 244 232 230 235 244 236 234 256 266 259 291 318 291 318 165 230 197 199 288 324 125 141 125 120 245 217 130 104 97 278 284 265 270 307 346 13 106 103 101 104 131 141 107 134 208 248 117 117 146 122 129 260 278 274 274 95 99 60 27 36 107 55 32 29 41 75 84 75
106 56 58 149 165 159 90 20 312 357 284 255 279 266 264 274 275 286 297 296 264 256 260 247 256 261 248 257 284 291 284 254 329 332 232 258 307 285 289 345 65 77 94 142 237 216 88 74 46 290 296 305 302 324 333 319 58 80 46 47 93 78 129 154 183 186 146 156 145 91 69 247 250 266 279 95 95 76 43 48 98 93 95 81 68 96 109 101
136 275 84 148 177 176 56 241 274 319 276 295 333 303 287 269 257 295 294 273 262 277 311 279 295 328 275 268 291 300 304 89 49 11 345 328 351 333 325 35 79 39 63 193 209 155 99 39 93 41 2 352 336 336 332 327 13 86 93 32 70 68 75 135 197 76 111 201 155 131 196 238 212 251 55 108 116 113 104 95 86 62 67 90 86 79 88 94
91 13 325 273 218 119 120 190 171 200 260 314 345 318 322 304 272 267 255 262 276 267 97 289 283 258 292 339 11 321 333 60 73 18 15 348 333 349 359 23 76 78 83 89 89 111 130 151 143 133 146 170 215 264 262 283 341 8 46 32 58 73 64 67 163 87 148 236 112 125 181 198 169 163 131 122 124 127 126 109 101 90 77 81 75 58 55 63
101 89 319 331 4 54 116 193 118 139 236 13 24 320 325 317 304 282 231 263 320 354 42 308 305 352 4 14 23 341 343 3 10 43 38 346 323 331 351 14 48 52 49 51 50 77 114 92 78 137 150 171 200 227 235 201 92 351 340 358 20 94 88 86 81 67 209 164 53 222 172 151 165 181 159 139 134 134 130 114 106 101 89 80 77 74 70 66
99 121 154 185 345 16 360 339 68 121 226 136 101 332 323 319 318 320 326 347 339 349 16 349 2 34 1 358 52 346 332 344 8 32 18 340 319 308 343 23 34 13 19 41 24 44 102 62 2 77 88 51 245 265 303 42 114 89 4 360 348 359 74 83 79 83 147 118 25 252 168 152 170 176 156 150 142 132 120 102 92 88 90 90 87 84 79 74
112 156 160 159 177 220 316 315 124 119 6 121 129 329 337 345 346 340 331 340 351 360 23 3 360 10 339 331 116 57 337 351 8 2 1 355 339 324 350 27 16 353 6 30 9 68 108 57 333 67 51 19 8 2 19 50 74 49 33 20 356 360 62 90 114 158 131 140 191 177 143 140 152 145 142 145 122 108 99 91 89 86 86 86 84 81 77 73
89 89 299 35 129 183 213 213 114 82 20 2 348 323 332 354 349 312 296 344 354 351 35 33 332 334 336 350 100 105 331 58 15 327 4 7 337 335 2 11 345 342 12 34 8 74 102 52 307 89 62 28 9 11 41 61 67 43 26 20 10 14 67 94 110 118 105 105 134 122 107 76 53 100 116 108 103 101 98 93 90 89 89 89 86 83 80 77
97 135 282 40 59 42 339 17 61 62 9 353 345 315 296 359 340 307 293 75 40 330 2 15 308 306 316 360 81 128 198 162 172 250 71 37 337 333 360 320 307 340 3 24 350 10 78 125 245 82 71 27 6 24 54 64 82 66 26 12 10 12 44 73 90 106 94 76 90 103 102 68 1 28 86 94 100 99 92 86 80 70 66 84 88 84 79 77
299 202 154 103 55 352 358 4 38 75 21 356 333 289 314 353 341 324 299 216 167 198 263 276 286 289 305 25 50 218 223 185 191 221 194 140 262 232 201 237 343 349 348 11 348 355 66 110 352 58 87 2 356 31 39 33 63 60 23 3 358 357 12 16 2 97 123 126 117 108 114 115 19 67 85 81 87 92 83 68 63 46 21 43 71 76 73 69
341 307 68 101 84 353 1 11 18 65 51 308 262 263 320 337 336 1 346 291 248 190 212 222 244 286 342 356 331 270 246 224 209 214 197 207 231 229 226 246 254 231 213 139 51 6 85 117 103 77 106 32 354 17 12 9 34 36 360 345 328 309 306 329 343 354 19 132 136 140 147 127 62 102 102 80 65 72 70 56 55 51 36 38 49 57 64 65